Weather History for KJKJ - October, 2012

Change the Weather History Date:

Wednesday, October 3, 2012

  Actual Average (KFAR) Record (KFAR)
Temperature  
Mean Temperature 50 °F 51 °F  
Max Temperature 59 °F 63 °F 93 °F (1922)
Min Temperature 42 °F 40 °F 16 °F (1883)
Degree Days  
Heating Degree Days 14 14  
Month to date heating degree days 40  
Since 1 July heating degree days 310  
Cooling Degree Days 0 0  
Month to date cooling degree days 0  
Year to date cooling degree days 548  
Moisture  
Dew Point 38 °F    
Average Humidity 62    
Maximum Humidity 87    
Minimum Humidity 41    
Precipitation  
Precipitation 0.00 in 0.08 in 1.80 in (1903)
Month to date precipitation 0.25  
Year to date precipitation 18.88  
Snow  
Snow 0.00 in 0.00 in 0.00 in ()
Month to date snowfall 0.0  
Since 1 July snowfall 0.0  
Since 1 September snowfall 0.0  
Snow Depth -    
Sea Level Pressure  
Sea Level Pressure 29.88 in    
Wind  
Wind Speed 9 mph (NNE)    
Max Wind Speed 30 mph    
Max Gust Speed 41 mph    
Visibility 9 miles    
Events Rain    
T = Trace of Precipitation, MM = Missing Value Source: NWS Daily Summary

Daily Weather History Graph

Daily Weather History Graph

Search for Another Location

Airport or City:

Trip Planner

Search our weather history database for the weather conditions in past years. The results will help you decide how hot, cold, wet, or windy it might be!

Date:

Astronomy

Oct. 03, 2012 Rise Set
Actual Time 7:28 AM CDT 7:01 PM CDT
Civil Twilight 6:58 AM CDT 7:31 PM CDT
Nautical Twilight 6:23 AM CDT 8:06 PM CDT
Astronomical Twilight 5:47 AM CDT 8:42 PM CDT
Moon 8:38 PM CDT (10/3) 11:08 AM CDT (10/3)
Length of Visible Light 12h 33m
Length of Day
11h 32m
Waning Gibbous, 88% of the Moon is Illuminated
Oct 3
Waning Gibbous
Oct 8
Last Quarter
Oct 15
New
Oct 21
First Quarter
Oct 29
Full

Hourly Weather History & Observations

Time (CDT) Temp. Windchill Dew Point Humidity Pressure Visibility Wind Dir Wind Speed Gust Speed Precip Events Conditions
12:15 AM 51.8 °F - 30.2 °F 44% 29.81 in 7.0 mi Calm Calm - N/A   Clear
12:34 AM 53.6 °F - 30.2 °F 41% 29.81 in 10.0 mi Calm Calm - N/A   Clear
12:55 AM 51.8 °F - 30.2 °F 44% 29.81 in 10.0 mi Calm Calm - N/A   Clear
1:15 AM 48.2 °F - 30.2 °F 50% 29.81 in 7.0 mi SE 4.6 mph - N/A   Clear
1:35 AM 48.2 °F - 28.4 °F 46% 29.81 in 7.0 mi Calm Calm - N/A   Clear
1:55 AM 50.0 °F - 28.4 °F 43% 29.81 in 10.0 mi SE 5.8 mph - N/A   Clear
2:15 AM 50.0 °F - 28.4 °F 43% 29.80 in 10.0 mi SE 5.8 mph - N/A   Clear
2:35 AM 48.2 °F - 28.4 °F 46% 29.81 in 10.0 mi SSE 4.6 mph - N/A   Clear
2:55 AM 46.4 °F - 28.4 °F 50% 29.82 in 5.0 mi Calm Calm - N/A   Haze
3:15 AM 42.8 °F - 28.4 °F 57% 29.83 in 4.0 mi Calm Calm - N/A   Haze
3:35 AM 42.8 °F - 26.6 °F 53% 29.83 in 5.0 mi Calm Calm - N/A   Haze
3:55 AM 42.8 °F 41.1 °F 26.6 °F 53% 29.84 in 7.0 mi North 3.5 mph - N/A   Clear
4:14 AM 46.4 °F - 30.2 °F 53% 29.84 in 7.0 mi Calm Calm - N/A   Clear
4:35 AM 46.4 °F - 30.2 °F 53% 29.84 in 7.0 mi Calm Calm - N/A   Clear
4:55 AM 44.6 °F - 28.4 °F 53% 29.85 in 7.0 mi Calm Calm - N/A   Clear
5:14 AM 44.6 °F 41.4 °F 28.4 °F 53% 29.85 in 7.0 mi North 5.8 mph - N/A   Clear
5:35 AM 44.6 °F - 32.0 °F 61% 29.87 in 7.0 mi Calm Calm - N/A   Clear
5:55 AM 46.4 °F - 33.8 °F 62% 29.87 in 7.0 mi Calm Calm - N/A   Clear
6:15 AM 46.4 °F - 33.8 °F 62% 29.87 in 7.0 mi Calm Calm - N/A   Clear
6:35 AM 46.4 °F 45.2 °F 32.0 °F 57% 29.87 in 7.0 mi NNE 3.5 mph - N/A   Clear
6:55 AM 46.4 °F 43.5 °F 35.6 °F 66% 29.87 in 7.0 mi NNE 5.8 mph - N/A   Clear
7:15 AM 48.2 °F - 37.4 °F 66% 29.88 in 7.0 mi ENE 4.6 mph - N/A   Clear
7:35 AM 48.2 °F - 35.6 °F 62% 29.90 in 7.0 mi NNE 4.6 mph - N/A   Clear
7:55 AM 48.2 °F - 37.4 °F 66% 29.90 in 7.0 mi NE 4.6 mph - N/A   Clear
8:15 AM 48.2 °F - 37.4 °F 66% 29.92 in 7.0 mi NNE 3.5 mph - N/A   Clear
8:35 AM 50.0 °F - 37.4 °F 62% 29.91 in 7.0 mi NNE 9.2 mph - N/A   Clear
8:55 AM 51.8 °F - 39.2 °F 62% 29.92 in 10.0 mi NNE 11.5 mph - N/A   Clear
9:15 AM 51.8 °F - 37.4 °F 58% 29.93 in 10.0 mi NNE 12.7 mph - N/A   Clear
9:35 AM 51.8 °F - 37.4 °F 58% 29.93 in 10.0 mi NNE 12.7 mph - N/A   Clear
9:55 AM 51.8 °F - 37.4 °F 58% 29.91 in 10.0 mi NNE 15.0 mph - N/A Rain Light Rain
10:15 AM 51.8 °F - 37.4 °F 58% 29.91 in 10.0 mi NNE 13.8 mph 18.4 mph N/A   Clear
10:35 AM 51.8 °F - 37.4 °F 58% 29.90 in 10.0 mi NNE 12.7 mph - N/A   Clear
10:55 AM 51.8 °F - 37.4 °F 58% 29.89 in 10.0 mi NE 11.5 mph - N/A   Clear
11:14 AM 53.6 °F - 39.2 °F 58% 29.89 in 10.0 mi NE 16.1 mph - N/A   Clear
11:35 AM 53.6 °F - 39.2 °F 58% 29.89 in 10.0 mi NNE 12.7 mph - N/A   Clear
11:55 AM 53.6 °F - 39.2 °F 58% 29.89 in 10.0 mi NNE 15.0 mph - N/A   Clear
12:14 PM 53.6 °F - 39.2 °F 58% 29.89 in 10.0 mi North 16.1 mph - N/A   Clear
12:54 PM 55.4 °F - 42.8 °F 63% 29.90 in 10.0 mi North 19.6 mph 23.0 mph N/A   Clear
1:15 PM 55.4 °F - 42.8 °F 63% 29.89 in 10.0 mi NNE 19.6 mph - N/A   Clear
1:35 PM 57.2 °F - 42.8 °F 59% 29.89 in 10.0 mi NNE 18.4 mph - N/A   Clear
1:54 PM 57.2 °F - 42.8 °F 59% 29.89 in 10.0 mi NNE 18.4 mph 27.6 mph N/A   Clear
2:15 PM 57.2 °F - 42.8 °F 59% 29.88 in 10.0 mi NNE 23.0 mph 26.5 mph N/A   Clear
2:35 PM 57.2 °F - 41.0 °F 55% 29.88 in 10.0 mi NNE 20.7 mph - N/A   Clear
2:55 PM 57.2 °F - 41.0 °F 55% 29.88 in 10.0 mi NNE 21.9 mph 27.6 mph N/A   Clear
3:15 PM 55.4 °F - 41.0 °F 58% 29.87 in 10.0 mi NNE 25.3 mph 31.1 mph N/A   Clear
3:35 PM 55.4 °F - 41.0 °F 58% 29.87 in 10.0 mi NNE 21.9 mph 28.8 mph N/A   Clear
3:55 PM 57.2 °F - 41.0 °F 55% 29.86 in 10.0 mi NNE 23.0 mph 29.9 mph N/A   Clear
4:14 PM 57.2 °F - 41.0 °F 55% 29.86 in 10.0 mi NNE 24.2 mph 33.4 mph N/A   Clear
4:35 PM 59.0 °F - 41.0 °F 51% 29.87 in 10.0 mi NNE 20.7 mph 29.9 mph N/A   Clear
4:55 PM 57.2 °F - 41.0 °F 55% 29.88 in 10.0 mi NNE 23.0 mph 28.8 mph N/A   Clear
5:14 PM 57.2 °F - 41.0 °F 55% 29.86 in 10.0 mi NNE 21.9 mph 27.6 mph N/A   Clear
5:55 PM 57.2 °F - 42.8 °F 59% 29.88 in 10.0 mi NNE 21.9 mph 28.8 mph N/A   Clear
6:14 PM 55.4 °F - 42.8 °F 63% 29.88 in 10.0 mi NNE 24.2 mph 29.9 mph N/A   Clear
6:35 PM 53.6 °F - 44.6 °F 72% 29.89 in 10.0 mi North 25.3 mph 29.9 mph N/A   Clear
6:55 PM 53.6 °F - 44.6 °F 72% 29.90 in 10.0 mi North 27.6 mph 35.7 mph N/A   Clear
7:15 PM 53.6 °F - 44.6 °F 72% 29.92 in 10.0 mi North 25.3 mph 33.4 mph N/A   Clear
7:35 PM 51.8 °F - 44.6 °F 76% 29.93 in 10.0 mi North 25.3 mph 34.5 mph N/A   Scattered Clouds
8:15 PM 48.2 °F - 44.6 °F 87% 29.91 in 10.0 mi NNE 29.9 mph 41.4 mph N/A Rain Light Rain
8:35 PM 48.2 °F - 44.6 °F 87% 29.92 in 10.0 mi NNE 27.6 mph 34.5 mph N/A   Mostly Cloudy
8:54 PM 48.2 °F - 44.6 °F 87% 29.92 in 10.0 mi NNE 27.6 mph 35.7 mph N/A   Overcast
9:15 PM 48.2 °F - 44.6 °F 87% 29.91 in 10.0 mi NNE 27.6 mph 33.4 mph N/A Rain Light Rain
9:34 PM 48.2 °F - 44.6 °F 87% 29.91 in 10.0 mi NNE 27.6 mph 33.4 mph N/A   Light Drizzle
9:55 PM 48.2 °F - 44.6 °F 87% 29.90 in 10.0 mi NNE 26.5 mph 29.9 mph N/A   Overcast
10:15 PM 48.2 °F - 42.8 °F 82% 29.90 in 10.0 mi NNE 26.5 mph 32.2 mph N/A   Overcast
10:34 PM 48.2 °F - 42.8 °F 82% 29.90 in 10.0 mi NNE 25.3 mph 28.8 mph N/A   Overcast
10:55 PM 46.4 °F 38.5 °F 42.8 °F 87% 29.90 in 10.0 mi North 21.9 mph 28.8 mph N/A   Overcast
11:15 PM 46.4 °F 38.3 °F 42.8 °F 87% 29.90 in 10.0 mi North 23.0 mph 29.9 mph N/A   Overcast
11:34 PM 46.4 °F 37.2 °F 42.8 °F 87% 29.89 in 10.0 mi North 29.9 mph 34.5 mph N/A   Overcast
11:55 PM 46.4 °F 37.7 °F 41.0 °F 81% 29.88 in 10.0 mi North 26.5 mph 35.7 mph N/A   Overcast